Location: Newark
(33.2404°N, 35.6778°E)
Time: 01:55:38
(UTC+00:00)

Hubble Space Telescope - Pass Details

Date: 31 January 2020
Orbit: 536 x 540 km, 28.5° (Epoch: 21 February)

Event Time Altitude Azimuth Distance (km) Brightness Sun altitude
Exits shadow 03:49:00 - 241° (WSW) 2,180 3.4 -9.8°
Reaches altitude 10° 03:50:06 10° 236° (SW) 1,776 3.0 -9.6°
Maximum altitude 03:53:51 34° 170° (S) 881 2.1 -8.9°
Drops below altitude 10° 03:57:36 10° 104° (ESE) 1,779 5.2 -8.1°
Sets 04:00:00 0° 95° (E) 2,670 6.4 -7.6°
